Observations
| Time | Sensor | AQI | SAQ | Temp °C | Hum % | Pres Pa | CO μg/m³ | H₂S μg/m³ | NO μg/m³ | NO₂ μg/m³ | O₃ μg/m³ | SO₂ μg/m³ | CO₂e PPM | VOC PPM | PM1 μg/m³ | PM2.5 μg/m³ | PM4 μg/m³ | PM10 μg/m³ | TPS µm |
|---|---|---|---|---|---|---|---|---|---|---|---|---|---|---|---|---|---|---|---|
| Thursday 13 August 2026 | |||||||||||||||||||
| 06:39 | Trim Market St | 2 | 21.3 | 73 | 41,503 | 0 | 0 | 1.29 | 4.74 | 39.71 | 0 | 2.14 | 4.34 | 6.92 | |||||
| 06:38 | Trim Patrick St | 2 | 20.8 | 77 | 38,460 | 0 | 5.61 | 1.57 | 20.41 | 22.55 | 3.43 | 7.14 | 11.1 | 12.21 | |||||
| 06:37 | Trim Patrick St | 2 | 20.8 | 76 | 38,460 | 0 | 4.56 | 1.48 | 19.24 | 29.28 | 3.95 | 6.29 | 9.72 | 10.69 | |||||
| 06:36 | Trim Patrick St | 2 | 20.8 | 76 | 38,460 | 0 | 2.11 | 1.43 | 13.88 | 26.56 | 3.84 | 7.14 | 12.54 | 13.79 | |||||
| 06:35 | Trim Market St | 2 | 21.3 | 73 | 41,661 | 0 | 0 | 1.36 | 2.55 | 42.69 | 0 | 1.43 | 3.38 | 5.71 | |||||
| 06:35 | Trim Patrick St | 2 | 20.8 | 76 | 38,460 | 0 | 3.21 | 1.49 | 13.44 | 29.52 | 4 | 6.29 | 10.4 | 11.44 | |||||
| 06:34 | Trim Market St | 2 | 21.3 | 73 | 41,752 | 0 | 0 | 1.36 | 2.83 | 37.51 | 0 | 2.14 | 4.34 | 7.53 | |||||
| 06:34 | Trim Patrick St | 2 | 20.8 | 77 | 38,460 | 0 | 4.08 | 1.54 | 15.82 | 24.75 | 3.62 | 5.43 | 10.39 | 11.43 | |||||
| 06:33 | Trim Market St | 2 | 21.3 | 73 | 41,834 | 0 | 0 | 1.33 | 7.8 | 42.74 | 0 | 1.43 | 3.38 | 5.71 | |||||
| 06:33 | Trim Patrick St | 2 | 20.8 | 76 | 38,460 | 0 | 2.82 | 1.44 | 12.94 | 26.92 | 4.08 | 6.29 | 9 | 9.9 | |||||
| 06:32 | Trim Market St | 2 | 21.3 | 74 | 41,817 | 0 | 0 | 1.26 | 2.14 | 37.11 | 0 | 2.85 | 3.85 | 6.32 | |||||
| 06:32 | Trim Patrick St | 2 | 20.8 | 76 | 38,460 | 0 | 3.13 | 1.62 | 17.16 | 24.31 | 3.71 | 8.86 | 12.56 | 13.81 | |||||
| 06:31 | Trim Market St | 2 | 21.3 | 74 | 41,809 | 0.01 | 0 | 1.23 | 5.55 | 45.5 | 0 | 2.85 | 4.33 | 6.92 | |||||
| 06:31 | Trim Patrick St | 2 | 20.8 | 76 | 38,460 | 0 | 0.82 | 1.66 | 1.57 | 35.16 | 4.71 | 8 | 11.83 | 13.02 | |||||
| 06:30 | Trim Market St | 2 | 21.3 | 74 | 41,700 | 0 | 0 | 1.27 | 3.22 | 41.54 | 0 | 2.14 | 3.37 | 5.71 | |||||
| 06:30 | Trim Patrick St | 2 | 20.8 | 76 | 38,460 | 0 | 1.87 | 1.59 | 19.84 | 21.27 | 3.52 | 7.14 | 10.45 | 11.49 | |||||
| 06:29 | Trim Market St | 2 | 21.3 | 74 | 41,651 | 0 | 0 | 1.27 | 3.5 | 39.75 | 0 | 2.85 | 3.37 | 6.32 | |||||
| 06:29 | Trim Patrick St | 2 | 20.8 | 76 | 38,460 | 0 | 1.29 | 1.6 | 2.61 | 35.94 | 4.73 | 5.43 | 9.71 | 10.68 | |||||
| 06:28 | Trim Market St | 2 | 21.3 | 74 | 41,625 | 0.01 | 0 | 1.33 | 2.98 | 43.25 | 0 | 2.85 | 4.33 | 6.92 | |||||
| 06:28 | Trim Patrick St | 2 | 20.8 | 76 | 38,460 | 0 | 5.85 | 1.72 | 13.74 | 23.42 | 3.87 | 6.29 | 11.12 | 12.23 | |||||